DW7355 Weather Reports


time (UTC)temp
C
wind
direction
speed
KPH
gust
KPH
rain 1hr
cm
rain 24hr
cm
rain mn
cm
humidity
%
barometer
mb
20260507200053 18 301 6.4 16.1 0.00 0.25 0.10 28 1004.8
20260507194547 18 288 3.2 11.3 0.00 0.33 0.10 29 1005.1
20260507193053 18 295 1.6 16.1 0.00 0.33 0.10 29 1005.1
20260507191544 17 75 4.8 11.3 0.00 0.33 0.10 27 1005.2
20260507190044 17 29 4.8 14.5 0.00 0.33 0.10 28 1005.2
20260507184543 18 203 3.2 9.7 0.00 0.33 0.10 31 1005.4
20260507183044 18 30 3.2 11.3 0.00 0.33 0.10 29 1005.5
20260507181537 18 308 4.8 17.7 0.00 0.33 0.10 32 1005.6
20260507180040 17 354 6.4 17.7 0.00 0.33 0.10 33 1005.9
20260507174536 17 270 3.2 14.5 0.00 0.33 0.10 34 1005.9
20260507173037 17 356 0.0 19.3 0.00 0.33 0.10 36 1005.9
20260507171533 17 205 4.8 16.1 0.00 0.33 0.10 36 1005.9
20260507170030 17 245 4.8 19.3 0.00 0.33 0.10 40 1006.1
20260507164531 17 277 3.2 12.9 0.00 0.33 0.10 44 1006.2
20260507163025 16 226 3.2 11.3 0.00 0.33 0.10 47 1006.4
20260507161538 16 283 6.4 16.1 0.00 0.33 0.10 49 1006.5
20260507160033 16 23 4.8 11.3 0.00 0.33 0.10 49 1006.6
20260507154523 16 295 1.6 12.9 0.00 0.33 0.10 54 1006.8
20260507153019 15 304 0.0 8.0 0.00 0.33 0.10 55 1006.9
20260507151534 15 283 1.6 9.7 0.00 0.33 0.10 57 1007.0
20260507150017 15 63 1.6 4.8 0.00 0.33 0.10 57 1007.1
20260507144516 15 294 3.2 9.7 0.00 0.33 0.10 56 1007.3
20260507143015 15 283 6.4 12.9 0.00 0.33 0.10 57 1007.5
20260507141515 15 44 1.6 8.0 0.00 0.33 0.10 60 1007.5
20260507140017 14 226 1.6 8.0 0.00 0.33 0.10 63 1007.6
20260507134526 13 267 3.2 11.3 0.00 0.33 0.10 67 1007.6
20260507133010 11 253 4.8 8.0 0.00 0.33 0.10 94 1007.7
20260507131517 11 270 1.6 11.3 0.00 0.33 0.10 95 1007.7
20260507130006 10 253 1.6 8.0 0.00 0.33 0.10 96 1007.8
20260507124506 10 76 1.6 12.9 0.00 0.33 0.10 97 1008.0
20260507123016 10 280 3.2 8.0 0.00 0.33 0.10 97 1008.0
20260507121506 9 264 1.6 8.0 0.00 0.33 0.10 97 1007.9
20260507120005 9 276 0.0 4.8 0.00 0.33 0.10 97 1007.7
20260507114503 9 263 0.0 3.2 0.00 0.33 0.10 97 1007.9
20260507113002 8 263 0.0 4.8 0.00 0.33 0.10 97 1007.7
20260507111506 8 295 0.0 3.2 0.00 0.33 0.10 97 1007.7
20260507110001 8 295 0.0 3.2 0.00 0.33 0.10 97 1007.5
20260507104557 -17 0.0 0.0 0.00 0.33 0.10 1007.6
20260507103056 -17 0.0 0.0 0.00 0.33 0.10 1008.0
20260507101549 -17 0.0 0.0 0.00 0.33 0.10 1007.2
20260507100044 -17 0.0 0.0 0.00 0.33 0.10 1007.2
20260507094540 -17 0.0 0.0 0.03 0.33 0.10 1007.0
20260507093035 -17 0.0 0.0 0.03 0.33 0.10 1007.1
20260507091535 -17 0.0 0.0 0.05 0.33 0.10 1006.8
20260507090036 -17 0.0 0.0 0.08 0.33 0.10 1007.3
20260507084533 10 253 0.0 9.7 0.05 0.30 0.08 94 1007.3
20260507083020 10 272 1.6 8.0 0.08 0.30 0.08 93 1006.8
20260507081519 10 270 1.6 8.0 0.05 0.28 0.05 92 1006.6
20260507080014 11 276 0.0 9.7 0.03 0.25 0.03 90 1007.1
20260507074523 12 264 0.0 9.7 0.03 0.25 0.03 87 1006.4
20260507073008 12 288 0.0 9.7 0.00 0.23 0.00 85 1006.5
20260507071505 12 302 1.6 6.4 0.00 0.23 0.00 85 1005.8
20260507070010 12 245 0.0 4.8 0.00 0.23 0.00 86 1005.9
20260507064504 13 312 3.2 6.4 0.00 0.23 0.00 85 1006.1
20260507063100 13 287 3.2 6.4 0.00 0.23 0.00 85 1006.1
20260507061559 13 301 0.0 4.8 0.00 0.23 0.00 86 1005.9
20260507060106 13 282 3.2 9.7 0.00 0.23 0.00 86 1006.1
20260507054558 14 276 0.0 11.3 0.00 0.23 0.00 86 1006.2
20260507053055 14 329 1.6 11.3 0.00 0.23 0.00 87 1006.3
20260507051552 14 272 1.6 6.4 0.00 0.23 0.00 87 1006.0
20260507050049 15 250 4.8 12.9 0.00 0.23 0.00 88 1006.1
20260507044547 15 256 0.0 6.4 0.00 0.23 0.00 90 1005.9
20260507043043 15 305 1.6 11.3 0.00 0.23 0.00 92 1005.8
20260507041539 15 266 0.0 6.4 0.00 0.23 0.00 93 1005.9
20260507040035 15 285 0.0 4.8 0.00 0.23 0.00 93 1006.2
20260507034550 15 253 3.2 8.0 0.00 0.23 0.23 93 1006.0
20260507033038 15 295 0.0 8.0 0.00 0.23 0.23 93 1005.9
20260507031532 15 221 3.2 6.4 0.00 0.23 0.23 92 1005.7
20260507030035 15 263 3.2 8.0 0.00 0.23 0.23 92 1005.5
20260507024548 15 287 1.6 12.9 0.00 0.23 0.23 93 1005.5
20260507023030 15 239 0.0 8.0 0.00 0.23 0.23 93 1005.7
20260507021529 15 197 1.6 8.0 0.00 0.23 0.23 93 1005.6
20260507020029 15 228 1.6 8.0 0.00 0.23 0.23 93 1005.6
20260507014538 15 226 1.6 9.7 0.00 0.23 0.23 93 1005.6
20260507013028 14 155 1.6 17.7 0.00 0.23 0.23 93 1005.8
20260507011538 14 124 3.2 11.3 0.00 0.23 0.23 93 1006.0
20260507010027 14 269 3.2 9.7 0.00 0.23 0.23 93 1006.1
20260507004526 14 288 1.6 11.3 0.00 0.23 0.23 93 1006.1
20260507003025 14 211 3.2 16.1 0.03 0.23 0.23 93 1006.0
20260507001527 14 214 1.6 17.7 0.05 0.23 0.23 93 1005.9
20260507000024 14 242 1.6 12.9 0.08 0.23 0.23 93 1005.6
20260506234522 14 214 3.2 12.9 0.05 0.20 0.20 93 1005.8
20260506233021 15 225 1.6 12.9 0.05 0.20 0.20 93 1005.7
20260506231521 15 256 4.8 16.1 0.03 0.18 0.18 92 1005.7
20260506230017 15 179 1.6 12.9 0.00 0.15 0.15 92 1005.7
20260506224516 15 255 1.6 9.7 0.03 0.15 0.15 92 1005.7
20260506223012 15 170 3.2 11.3 0.05 0.15 0.15 92 1005.9
20260506221511 15 132 1.6 17.7 0.05 0.15 0.15 92 1006.1
20260506220010 16 160 1.6 9.7 0.05 0.15 0.15 91 1006.1
20260506214515 16 189 6.4 17.7 0.05 0.13 0.13 89 1006.4
20260506213009 16 255 6.4 22.5 0.03 0.10 0.10 87 1006.5
20260506211505 16 232 4.8 14.5 0.03 0.10 0.10 86 1006.5
20260506210004 16 307 3.2 19.3 0.03 0.10 0.10 86 1006.5
20260506204504 16 194 4.8 22.5 0.03 0.08 0.08 85 1006.7
20260506203008 16 214 3.2 19.3 0.05 0.08 0.08 83 1006.7
20260506201502 17 149 6.4 20.9 0.08 0.08 0.08 82 1006.6